When you browse on this site, cookies collect data to enhance your experience and personalize the content and advertising you see.
Visit our Privacy Policy to learn more. By continuing to use the site, you agree to this use of cookies and data.
  • In Hungary
  • List of Countries
  • For 7 days
  • Water Temperature
  • Weather Map
  • News
  • Weather Widgets
  • user-avatar
    Login

    Hourly Weather Kutna Hora

    Today, 17 August, Saturday

    Time Temperature Precipitation Wind Pressure Humidity
    00:00 +15°C° 0 mm 1 mps 737 mmHg 80%
    01:00 +15°C° 0 mm 2 mps 737 mmHg 78%
    02:00 +14°C° 0 mm 2 mps 737 mmHg 80%
    03:00 +14°C° 0 mm 2 mps 737 mmHg 82%
    04:00 +14°C° 0 mm 2 mps 737 mmHg 83%
    05:00 +15°C° 0 mm 2 mps 737 mmHg 81%
    06:00 +16°C° 0 mm 2 mps 737 mmHg 78%
    07:00 +17°C° 0 mm 2 mps 737 mmHg 75%
    08:00 +18°C° 0 mm 2 mps 737 mmHg 68%
    09:00 +20°C° 0 mm 2 mps 737 mmHg 61%
    10:00 +22°C° 0 mm 3 mps 737 mmHg 55%
    11:00 +24°C° 0 mm 3 mps 736 mmHg 51%
    12:00 +25°C° 0 mm 3 mps 736 mmHg 47%
    13:00 +26°C° 0 mm 3 mps 736 mmHg 43%
    14:00 +26°C° 0 mm 3 mps 736 mmHg 48%
    15:00 +25°C° 0 mm 2 mps 735 mmHg 53%
    16:00 +24°C° 0 mm 2 mps 735 mmHg 58%
    17:00 +23°C° 0 mm 2 mps 735 mmHg 60%
    18:00 +21°C° 0 mm 2 mps 735 mmHg 62%
    19:00 +21°C° 0 mm 2 mps 735 mmHg 65%
    20:00 +20°C° 0 mm 2 mps 735 mmHg 66%
    21:00 +21°C° 0 mm 1 mps 735 mmHg 68%
    22:00 +20°C° 0 mm 1 mps 735 mmHg 70%
    23:00 +20°C° 0 mm 1 mps 735 mmHg 70%

    Tomorrow, 18 August, Sunday

    Time Temperature Precipitation Wind Pressure Humidity
    00:00 +19°C° 0 mm 2 mps 735 mmHg 71%
    01:00 +19°C° 0 mm 2 mps 735 mmHg 71%
    02:00 +18°C° 0 mm 2 mps 734 mmHg 73%
    03:00 +18°C° 0 mm 2 mps 734 mmHg 74%
    04:00 +18°C° 0 mm 2 mps 734 mmHg 75%
    05:00 +18°C° 0 mm 2 mps 734 mmHg 74%
    06:00 +19°C° 0 mm 2 mps 734 mmHg 74%
    07:00 +19°C° 0 mm 2 mps 734 mmHg 73%
    08:00 +22°C° 0 mm 3 mps 734 mmHg 67%
    09:00 +25°C° 0 mm 3 mps 734 mmHg 61%
    10:00 +27°C° 0 mm 3 mps 734 mmHg 56%
    11:00 +29°C° 0 mm 4 mps 734 mmHg 51%
    12:00 +30°C° 0 mm 5 mps 734 mmHg 47%
    13:00 +32°C° 0 mm 5 mps 733 mmHg 43%
    14:00 +33°C° 0 mm 5 mps 733 mmHg 43%
    15:00 +33°C° 0 mm 4 mps 733 mmHg 42%
    16:00 +33°C° 0 mm 4 mps 733 mmHg 42%
    17:00 +30°C° 0 mm 3 mps 733 mmHg 48%
    18:00 +28°C° 0 mm 2 mps 733 mmHg 55%
    19:00 +26°C° 0 mm 1 mps 733 mmHg 61%
    20:00 +25°C° 0.1 mm 1 mps 734 mmHg 65%
    21:00 +23°C° 0.1 mm 1 mps 734 mmHg 70%
    22:00 +20°C° 0.1 mm 0 mps 734 mmHg 74%
    23:00 +22°C° 0.3 mm 1 mps 734 mmHg 78%

    Day after tomorrow, 19 August, Monday

    Time Temperature Precipitation Wind Pressure Humidity
    00:00 +21°C° 0.3 mm 1 mps 734 mmHg 82%
    01:00 +20°C° 0.3 mm 2 mps 735 mmHg 86%
    02:00 +19°C° 0.5 mm 2 mps 735 mmHg 87%
    03:00 +19°C° 0.5 mm 2 mps 735 mmHg 89%
    04:00 +19°C° 0.5 mm 2 mps 736 mmHg 90%
    05:00 +19°C° 0 mm 2 mps 736 mmHg 89%
    06:00 +20°C° 0 mm 1 mps 737 mmHg 87%
    07:00 +20°C° 0 mm 1 mps 737 mmHg 86%
    08:00 +19°C° 0.7 mm 2 mps 737 mmHg 87%
    09:00 +19°C° 0.7 mm 3 mps 737 mmHg 88%
    10:00 +19°C° 0.7 mm 3 mps 738 mmHg 89%
    11:00 +20°C° 0.6 mm 4 mps 738 mmHg 86%
    12:00 +20°C° 0.6 mm 5 mps 739 mmHg 83%
    13:00 +21°C° 0.6 mm 5 mps 739 mmHg 80%
    14:00 +22°C° 0.1 mm 5 mps 739 mmHg 76%
    15:00 +23°C° 0.1 mm 4 mps 739 mmHg 72%
    16:00 +24°C° 0.1 mm 3 mps 739 mmHg 68%
    17:00 +22°C° 0 mm 3 mps 739 mmHg 72%
    18:00 +21°C° 0 mm 2 mps 739 mmHg 77%
    19:00 +21°C° 0 mm 1 mps 739 mmHg 81%
    20:00 +21°C° 0 mm 1 mps 739 mmHg 83%
    21:00 +20°C° 0 mm 1 mps 739 mmHg 84%
    22:00 +20°C° 0 mm 1 mps 740 mmHg 86%
    23:00 +20°C° 0 mm 1 mps 740 mmHg 87%

    20 August, Tuesday

    Time Temperature Precipitation Wind Pressure Humidity
    00:00 +19°C° 0 mm 1 mps 739 mmHg 87%
    01:00 +19°C° 0 mm 1 mps 739 mmHg 88%
    02:00 +19°C° 0 mm 1 mps 739 mmHg 88%
    03:00 +17°C° 0 mm 0 mps 739 mmHg 88%
    04:00 +17°C° 0 mm 0 mps 739 mmHg 88%
    05:00 +17°C° 0 mm 0 mps 740 mmHg 86%
    06:00 +18°C° 0 mm 0 mps 740 mmHg 84%
    07:00 +19°C° 0 mm 0 mps 740 mmHg 82%
    08:00 +22°C° 0 mm 1 mps 740 mmHg 75%
    09:00 +23°C° 0 mm 2 mps 740 mmHg 69%
    10:00 +25°C° 0 mm 3 mps 740 mmHg 63%
    11:00 +26°C° 0.1 mm 3 mps 739 mmHg 59%
    12:00 +27°C° 0.1 mm 3 mps 739 mmHg 55%
    13:00 +28°C° 0.1 mm 2 mps 739 mmHg 51%
    14:00 +27°C° 0.3 mm 2 mps 738 mmHg 54%
    15:00 +27°C° 0.3 mm 2 mps 738 mmHg 57%
    16:00 +27°C° 0.3 mm 2 mps 737 mmHg 59%
    17:00 +25°C° 0.5 mm 3 mps 737 mmHg 68%
    18:00 +22°C° 0.5 mm 3 mps 737 mmHg 77%
    19:00 +20°C° 0.5 mm 4 mps 737 mmHg 86%
    20:00 +19°C° 2.9 mm 6 mps 738 mmHg 88%
    21:00 +17°C° 2.9 mm 7 mps 738 mmHg 90%
    22:00 +16°C° 2.9 mm 8 mps 739 mmHg 92%
    23:00 +16°C° 1.9 mm 7 mps 740 mmHg 92%

    21 August, Wednesday

    Time Temperature Precipitation Wind Pressure Humidity
    00:00 +15°C° 1.9 mm 6 mps 740 mmHg 93%
    01:00 +15°C° 1.9 mm 5 mps 740 mmHg 93%
    02:00 +14°C° 0.1 mm 4 mps 741 mmHg 93%
    03:00 +14°C° 0.1 mm 3 mps 741 mmHg 93%
    04:00 +15°C° 0.1 mm 2 mps 742 mmHg 93%
    05:00 +16°C° 0 mm 2 mps 742 mmHg 91%
    06:00 +16°C° 0 mm 2 mps 743 mmHg 89%
    07:00 +16°C° 0 mm 2 mps 743 mmHg 86%
    08:00 +18°C° 0.1 mm 2 mps 744 mmHg 81%
    09:00 +19°C° 0.1 mm 3 mps 744 mmHg 76%
    10:00 +20°C° 0.1 mm 3 mps 744 mmHg 71%
    11:00 +21°C° 0.2 mm 3 mps 744 mmHg 68%
    12:00 +21°C° 0.2 mm 3 mps 744 mmHg 64%
    13:00 +22°C° 0.2 mm 3 mps 744 mmHg 60%
    14:00 +22°C° 0 mm 3 mps 744 mmHg 58%
    15:00 +22°C° 0 mm 4 mps 744 mmHg 56%
    16:00 +22°C° 0 mm 4 mps 744 mmHg 54%
    17:00 +21°C° 0 mm 3 mps 744 mmHg 61%
    18:00 +19°C° 0 mm 3 mps 744 mmHg 67%
    19:00 +18°C° 0 mm 2 mps 744 mmHg 73%
    20:00 +17°C° 0 mm 2 mps 744 mmHg 76%
    21:00 +16°C° 0 mm 1 mps 745 mmHg 80%
    22:00 +15°C° 0 mm 1 mps 745 mmHg 83%
    23:00 +15°C° 0 mm 1 mps 745 mmHg 85%

    22 August, Thursday

    Time Temperature Precipitation Wind Pressure Humidity
    00:00 +14°C° 0 mm 1 mps 745 mmHg 86%
    01:00 +13°C° 0 mm 0 mps 745 mmHg 88%
    02:00 +13°C° 0 mm 0 mps 745 mmHg 89%
    03:00 +14°C° 0 mm 1 mps 745 mmHg 89%
    04:00 +13°C° 0 mm 1 mps 744 mmHg 90%
    05:00 +14°C° 0 mm 1 mps 745 mmHg 87%
    06:00 +15°C° 0 mm 1 mps 745 mmHg 84%
    07:00 +16°C° 0 mm 1 mps 745 mmHg 81%
    08:00 +18°C° 0 mm 1 mps 745 mmHg 75%
    09:00 +19°C° 0 mm 2 mps 745 mmHg 69%
    10:00 +20°C° 0 mm 2 mps 746 mmHg 63%
    11:00 +23°C° 0 mm 2 mps 745 mmHg 58%
    12:00 +24°C° 0 mm 2 mps 745 mmHg 54%
    13:00 +25°C° 0 mm 2 mps 745 mmHg 49%
    14:00 +25°C° 0 mm 2 mps 744 mmHg 49%
    15:00 +25°C° 0 mm 2 mps 744 mmHg 48%
    16:00 +25°C° 0 mm 2 mps 744 mmHg 48%
    17:00 +23°C° 0 mm 2 mps 744 mmHg 56%
    18:00 +20°C° 0 mm 2 mps 744 mmHg 64%
    19:00 +19°C° 0 mm 2 mps 744 mmHg 72%
    20:00 +18°C° 0 mm 2 mps 744 mmHg 76%
    21:00 +17°C° 0 mm 2 mps 744 mmHg 80%
    22:00 +16°C° 0 mm 2 mps 744 mmHg 83%
    23:00 +15°C° 0 mm 1 mps 744 mmHg 84%
    Show more